This demonstration page uses our WeatherBlox Daily Observations layout. Learn more.

Left ArrowRight Arrow

Hourly Observations for September 20, 2015

Temp ( °F °C ) Dew Point ( °F °C ) Humidity (%) Winds ( mph kmh ) Pressure ( in mb ) Visibility ( mi km ) Precip ( " mm )
12:59 am 00:59 Mostly Clear with Fog 68 20 66 18.9 93 93 Calm 29.90 1013 7 11 0.00 0.00
1:59 am 01:59 Mostly Clear with Patchy Fog 68 20 66 18.9 93 93 Calm 29.89 1012 7 11 0.00 0.00
2:59 am 02:59 Mostly Clear with Mist and Fog 68 20 65 18.3 90 90 Calm 29.88 1012 6 10 0.00 0.00
3:59 am 03:59 Mostly Clear with Mist and Fog 68 20 67 19.4 96 96 Calm 29.88 1012 6 10 0.00 0.00
4:59 am 04:59 Partly Cloudy with Mist and Fog 66 18.9 64 17.8 93 93 Calm 29.88 1012 6 10 0.00 0.00
5:59 am 05:59 Partly Cloudy with Mist and Fog 67 19.4 66 18.9 97 97 Calm 29.89 1012 6 10 0.00 0.00
6:59 am 06:59 Partly Cloudy with Mist and Fog 67 19.4 65 18.3 93 93 Calm 29.91 1013 4 6 0.00 0.00
7:59 am 07:59 Mostly Cloudy with Fog 73 22.8 72 22.2 96 96 NW 6 9 29.93 1014 0 0 0.00 0.00
8:43 am 08:43 Mostly Cloudy with Mist and Fog 74 23.3 72 22.2 94 94 NNW 10 17 29.94 1014 4 6 0.00 0.00
8:59 am 08:59 Partly Cloudy with Mist and Fog 75 23.9 72 22.2 90 90 NNW 6 9 29.95 1014 5 8 0.00 0.00
9:59 am 09:59 Mostly Cloudy 78 25.6 70 21.1 76 76 NNW 8 13 29.96 1015 10 16 0.00 0.00
10:59 am 10:59 Mostly Cloudy 81 27.2 70 21.1 69 69 NNW 7 11 29.96 1015 9 14 0.00 0.00
11:59 am 11:59 Mostly Cloudy 81 27.2 70 21.1 69 69 NNE 14 22 29.97 1015 9 14 0.00 0.00
12:59 pm 12:59 Mostly Cloudy 81 27.2 69 20.6 67 67 N 16 26 29.97 1015 9 14 0.00 0.00
1:59 pm 13:59 Mostly Cloudy 80 26.7 68 20 67 67 N 16 26 29.96 1014 9 14 0.00 0.00
2:59 pm 14:59 Mostly Cloudy 81 27.2 68 20 65 65 N 16 26 29.95 1014 9 14 0.00 0.00
3:59 pm 15:59 Mostly Cloudy 80 26.7 67 19.4 64 64 NNE 12 19 29.95 1014 9 14 0.00 0.00
4:59 pm 16:59 Mostly Cloudy 78 25.6 66 18.9 67 67 NNE 16 26 29.96 1015 10 16 0.00 0.00
5:33 pm 17:33 Mostly Cloudy 76 24.4 65 18.3 69 69 N 16 26 29.97 1015 10 16 0.00 0.00
5:59 pm 17:59 Mostly Cloudy 76 24.4 65 18.3 69 69 N 15 24 29.97 1015 10 16 0.00 0.00
7:59 pm 19:59 Cloudy 74 23.3 67 19.4 79 79 NE 10 17 30.00 1016 10 16 0.00 0.00
8:59 pm 20:59 Cloudy 75 23.9 66 18.9 74 74 NE 13 20 30.01 1016 10 16 0.00 0.00
9:59 pm 21:59 Cloudy 75 23.9 66 18.9 74 74 NNE 13 20 30.02 1017 10 16 0.00 0.00
10:59 pm 22:59 Mostly Cloudy 74 23.3 66 18.9 76 76 NE 12 19 30.02 1017 10 16 0.00 0.00
11:59 pm 23:59 Mostly Cloudy 74 23.3 66 18.9 76 76 NNE 10 17 30.02 1017 10 16 0.00 0.00

Powered by AerisWeather